Time,TemperatureF,DewpointF,PressureIn,WindDirection,WindDirectionDegrees,WindSpeedMPH,WindSpeedGustMPH,Humidity,HourlyPrecipIn,Conditions,Clouds,dailyrainin,SolarRadiationWatts/m^2,SoftwareType,DateUTC
2013-05-04 00:13:00,66.0,41.0,-100.00,ESE,114,8.0,15.0,40,0.00,,,0.00,0.000000,,2013-05-04 04:13:00,
2013-05-04 00:23:00,66.0,41.0,-100.00,ESE,114,8.0,15.0,40,0.00,,,0.00,0.000000,,2013-05-04 04:23:00,
2013-05-04 00:33:00,66.0,41.0,-100.00,ESE,114,8.0,15.0,40,0.00,,,0.00,0.000000,,2013-05-04 04:33:00,
2013-05-04 00:42:00,66.0,41.0,-100.00,ESE,114,8.0,15.0,40,0.00,,,0.00,0.000000,,2013-05-04 04:42:00,
2013-05-04 01:12:00,65.0,39.0,-100.00,ESE,116,8.0,15.0,38,0.00,,,0.00,0.000000,,2013-05-04 05:12:00,
2013-05-04 01:22:00,65.0,39.0,-100.00,ESE,116,8.0,15.0,38,0.00,,,0.00,0.000000,,2013-05-04 05:22:00,
2013-05-04 01:32:00,65.0,39.0,-100.00,ESE,116,8.0,15.0,38,0.00,,,0.00,0.000000,,2013-05-04 05:32:00,
2013-05-04 01:43:00,65.0,39.0,-100.00,ESE,116,8.0,15.0,38,0.00,,,0.00,0.000000,,2013-05-04 05:43:00,
2013-05-04 02:12:00,63.0,38.0,-100.00,ESE,117,8.0,13.0,40,0.00,,,0.00,0.000000,,2013-05-04 06:12:00,
2013-05-04 02:22:00,63.0,38.0,-100.00,ESE,117,8.0,13.0,40,0.00,,,0.00,0.000000,,2013-05-04 06:22:00,
2013-05-04 02:32:00,63.0,38.0,-100.00,ESE,117,8.0,13.0,40,0.00,,,0.00,0.000000,,2013-05-04 06:32:00,
2013-05-04 02:42:00,63.0,38.0,-100.00,ESE,117,8.0,13.0,40,0.00,,,0.00,0.000000,,2013-05-04 06:42:00,
2013-05-04 03:11:00,62.0,37.0,-100.00,ESE,114,8.0,12.0,40,0.00,,,0.00,0.000000,,2013-05-04 07:11:00,
2013-05-04 03:22:00,62.0,37.0,-100.00,ESE,114,8.0,12.0,40,0.00,,,0.00,0.000000,,2013-05-04 07:22:00,
2013-05-04 03:32:00,62.0,37.0,-100.00,ESE,114,8.0,12.0,40,0.00,,,0.00,0.000000,,2013-05-04 07:32:00,
2013-05-04 03:42:00,62.0,37.0,-100.00,ESE,114,8.0,12.0,40,0.00,,,0.00,0.000000,,2013-05-04 07:42:00,
2013-05-04 04:12:00,61.0,38.0,-100.00,ESE,115,8.0,13.0,42,0.00,,,0.00,0.000000,,2013-05-04 08:12:00,
2013-05-04 04:22:00,61.0,38.0,-100.00,ESE,115,8.0,13.0,42,0.00,,,0.00,0.000000,,2013-05-04 08:22:00,
2013-05-04 04:32:00,61.0,38.0,-100.00,ESE,115,8.0,13.0,42,0.00,,,0.00,0.000000,,2013-05-04 08:32:00,
2013-05-04 04:42:00,61.0,38.0,-100.00,ESE,115,8.0,13.0,42,0.00,,,0.00,0.000000,,2013-05-04 08:42:00,
2013-05-04 05:11:00,60.0,41.0,-100.00,ESE,110,8.0,13.0,50,0.00,,,0.00,0.000000,,2013-05-04 09:11:00,
2013-05-04 05:22:00,60.0,41.0,-100.00,ESE,110,8.0,13.0,50,0.00,,,0.00,0.000000,,2013-05-04 09:22:00,
2013-05-04 05:32:00,60.0,41.0,-100.00,ESE,110,8.0,13.0,50,0.00,,,0.00,0.000000,,2013-05-04 09:32:00,
2013-05-04 05:42:00,60.0,41.0,-100.00,ESE,110,8.0,13.0,50,0.00,,,0.00,0.000000,,2013-05-04 09:42:00,
2013-05-04 06:12:00,58.0,42.0,-100.00,East,99,8.0,15.0,55,0.00,,,0.00,0.000000,,2013-05-04 10:12:00,
2013-05-04 06:23:00,58.0,42.0,-100.00,East,99,8.0,15.0,55,0.00,,,0.00,0.000000,,2013-05-04 10:23:00,
2013-05-04 06:33:00,58.0,42.0,-100.00,East,99,8.0,15.0,55,0.00,,,0.00,0.000000,,2013-05-04 10:33:00,
2013-05-04 06:42:00,58.0,42.0,-100.00,East,99,8.0,15.0,55,0.00,,,0.00,0.000000,,2013-05-04 10:42:00,
2013-05-04 07:12:00,57.0,43.0,-100.00,East,101,7.0,12.0,60,0.00,,,0.00,0.000000,,2013-05-04 11:12:00,
2013-05-04 07:21:00,57.0,43.0,-100.00,East,101,7.0,12.0,60,0.00,,,0.00,0.000000,,2013-05-04 11:21:00,
2013-05-04 07:32:00,57.0,43.0,-100.00,East,101,7.0,12.0,60,0.00,,,0.00,0.000000,,2013-05-04 11:32:00,
2013-05-04 07:45:00,57.0,43.0,-100.00,East,101,7.0,12.0,60,0.00,,,0.00,0.000000,,2013-05-04 11:45:00,
2013-05-04 08:14:00,58.0,45.0,-100.00,ESE,105,9.0,15.0,62,0.00,,,0.00,23.000000,,2013-05-04 12:14:00,
2013-05-04 08:30:00,58.0,45.0,-100.00,ESE,105,9.0,15.0,62,0.00,,,0.00,23.000000,,2013-05-04 12:30:00,
2013-05-04 08:37:00,58.0,45.0,-100.00,ESE,105,9.0,15.0,62,0.00,,,0.00,23.000000,,2013-05-04 12:37:00,
2013-05-04 09:11:00,59.0,44.0,-100.00,ESE,111,9.0,15.0,58,0.00,,,0.00,73.000000,,2013-05-04 13:11:00,
2013-05-04 09:22:00,59.0,44.0,-100.00,ESE,111,9.0,15.0,58,0.00,,,0.00,73.000000,,2013-05-04 13:22:00,
2013-05-04 09:32:00,59.0,44.0,-100.00,ESE,111,9.0,15.0,58,0.00,,,0.00,73.000000,,2013-05-04 13:32:00,
2013-05-04 09:42:00,59.0,44.0,-100.00,ESE,111,9.0,15.0,58,0.00,,,0.00,73.000000,,2013-05-04 13:42:00,
2013-05-04 10:11:00,61.0,42.0,-100.00,ESE,107,13.0,19.0,49,0.00,,,0.00,315.000000,,2013-05-04 14:11:00,
2013-05-04 10:21:00,61.0,42.0,-100.00,ESE,107,13.0,19.0,49,0.00,,,0.00,315.000000,,2013-05-04 14:21:00,
2013-05-04 10:32:00,61.0,42.0,-100.00,ESE,107,13.0,19.0,49,0.00,,,0.00,315.000000,,2013-05-04 14:32:00,
2013-05-04 10:42:00,61.0,42.0,-100.00,ESE,107,13.0,19.0,49,0.00,,,0.00,315.000000,,2013-05-04 14:42:00,
2013-05-04 11:12:00,64.0,42.0,-100.00,ESE,110,11.0,19.0,44,0.00,,,0.00,427.000000,,2013-05-04 15:12:00,
2013-05-04 11:22:00,64.0,42.0,-100.00,ESE,110,11.0,19.0,44,0.00,,,0.00,427.000000,,2013-05-04 15:22:00,
2013-05-04 11:33:00,64.0,42.0,-100.00,ESE,110,11.0,19.0,44,0.00,,,0.00,427.000000,,2013-05-04 15:33:00,
2013-05-04 11:43:00,64.0,42.0,-100.00,ESE,110,11.0,19.0,44,0.00,,,0.00,427.000000,,2013-05-04 15:43:00,
2013-05-04 12:12:00,62.0,44.0,-100.00,ESE,118,9.0,15.0,51,0.00,,,0.00,340.000000,,2013-05-04 16:12:00,
2013-05-04 12:22:00,62.0,44.0,-100.00,ESE,118,9.0,15.0,51,0.00,,,0.00,340.000000,,2013-05-04 16:22:00,
2013-05-04 12:33:00,62.0,44.0,-100.00,ESE,118,9.0,15.0,51,0.00,,,0.00,340.000000,,2013-05-04 16:33:00,
2013-05-04 12:42:00,62.0,44.0,-100.00,ESE,118,9.0,15.0,51,0.00,,,0.00,340.000000,,2013-05-04 16:42:00,
2013-05-04 13:12:00,61.0,43.0,-100.00,SSE,153,5.0,16.0,51,0.00,,,0.00,443.000000,,2013-05-04 17:12:00,
2013-05-04 13:22:00,61.0,43.0,-100.00,SSE,153,5.0,16.0,51,0.00,,,0.00,443.000000,,2013-05-04 17:22:00,
2013-05-04 13:32:00,61.0,43.0,-100.00,SSE,153,5.0,16.0,51,0.00,,,0.00,443.000000,,2013-05-04 17:32:00,
2013-05-04 13:42:00,61.0,43.0,-100.00,SSE,153,5.0,16.0,51,0.00,,,0.00,443.000000,,2013-05-04 17:42:00,
2013-05-04 14:12:00,68.0,41.0,-100.00,SE,128,8.0,11.0,38,0.00,,,0.00,698.000000,,2013-05-04 18:12:00,
2013-05-04 14:22:00,68.0,41.0,-100.00,SE,128,8.0,11.0,38,0.00,,,0.00,698.000000,,2013-05-04 18:22:00,
2013-05-04 14:32:00,68.0,41.0,-100.00,SE,128,8.0,11.0,38,0.00,,,0.00,698.000000,,2013-05-04 18:32:00,
2013-05-04 14:42:00,68.0,41.0,-100.00,SE,128,8.0,11.0,38,0.00,,,0.00,698.000000,,2013-05-04 18:42:00,
2013-05-04 15:11:00,69.0,42.0,-100.00,SSE,157,7.0,14.0,38,0.00,,,0.00,544.000000,,2013-05-04 19:11:00,
2013-05-04 15:21:00,69.0,42.0,-100.00,SSE,157,7.0,14.0,38,0.00,,,0.00,544.000000,,2013-05-04 19:21:00,
2013-05-04 15:32:00,69.0,42.0,-100.00,SSE,157,7.0,14.0,38,0.00,,,0.00,544.000000,,2013-05-04 19:32:00,
2013-05-04 15:42:00,69.0,42.0,-100.00,SSE,157,7.0,14.0,38,0.00,,,0.00,544.000000,,2013-05-04 19:42:00,
2013-05-04 16:11:00,65.0,48.0,-100.00,SW,219,9.0,13.0,54,0.00,,,0.00,436.000000,,2013-05-04 20:11:00,
2013-05-04 16:22:00,65.0,48.0,-100.00,SW,219,9.0,13.0,54,0.00,,,0.00,436.000000,,2013-05-04 20:22:00,
2013-05-04 16:32:00,65.0,48.0,-100.00,SW,219,9.0,13.0,54,0.00,,,0.00,436.000000,,2013-05-04 20:32:00,
2013-05-04 16:42:00,65.0,48.0,-100.00,SW,219,9.0,13.0,54,0.00,,,0.00,436.000000,,2013-05-04 20:42:00,
2013-05-04 17:12:00,65.0,47.0,-100.00,SSW,201,8.0,16.0,52,0.00,,,0.00,700.000000,,2013-05-04 21:12:00,
2013-05-04 17:22:00,65.0,47.0,-100.00,SSW,201,8.0,16.0,52,0.00,,,0.00,700.000000,,2013-05-04 21:22:00,
2013-05-04 17:33:00,65.0,47.0,-100.00,SSW,201,8.0,16.0,52,0.00,,,0.00,700.000000,,2013-05-04 21:33:00,
2013-05-04 17:43:00,65.0,47.0,-100.00,SSW,201,8.0,16.0,52,0.00,,,0.00,700.000000,,2013-05-04 21:43:00,
2013-05-04 18:12:00,61.0,48.0,-100.00,SSW,213,9.0,15.0,63,0.00,,,0.00,400.000000,,2013-05-04 22:12:00,
2013-05-04 18:22:00,61.0,48.0,-100.00,SSW,213,9.0,15.0,63,0.00,,,0.00,400.000000,,2013-05-04 22:22:00,
2013-05-04 18:33:00,61.0,48.0,-100.00,SSW,213,9.0,15.0,63,0.00,,,0.00,400.000000,,2013-05-04 22:33:00,
2013-05-04 18:42:00,61.0,48.0,-100.00,SSW,213,9.0,15.0,63,0.00,,,0.00,400.000000,,2013-05-04 22:42:00,
2013-05-04 19:12:00,60.0,49.0,-100.00,SW,228,8.0,12.0,66,0.00,,,-99.99,149.000000,,2013-05-04 23:12:00,
2013-05-04 19:22:00,60.0,49.0,-100.00,SW,228,8.0,12.0,66,0.00,,,-99.99,149.000000,,2013-05-04 23:22:00,
2013-05-04 19:32:00,60.0,49.0,-100.00,SW,228,8.0,12.0,66,0.00,,,-99.99,149.000000,,2013-05-04 23:32:00,
2013-05-04 19:42:00,60.0,49.0,-100.00,SW,228,8.0,12.0,66,0.00,,,-99.99,149.000000,,2013-05-04 23:42:00,
2013-05-04 20:11:00,58.0,49.0,-100.00,WSW,247,7.0,13.0,71,0.00,,,0.00,97.000000,,2013-05-05 00:11:00,
2013-05-04 20:22:00,58.0,49.0,-100.00,WSW,247,7.0,13.0,71,0.00,,,0.00,97.000000,,2013-05-05 00:22:00,
2013-05-04 20:32:00,58.0,49.0,-100.00,WSW,247,7.0,13.0,71,0.00,,,0.00,97.000000,,2013-05-05 00:32:00,
2013-05-04 20:42:00,58.0,49.0,-100.00,WSW,247,7.0,13.0,71,0.00,,,0.00,97.000000,,2013-05-05 00:42:00,
2013-05-04 21:11:00,57.0,50.0,-100.00,SW,231,5.0,11.0,76,0.00,,,0.00,15.000000,,2013-05-05 01:11:00,
2013-05-04 21:22:00,57.0,50.0,-100.00,SW,231,5.0,11.0,76,0.00,,,0.00,15.000000,,2013-05-05 01:22:00,
2013-05-04 21:32:00,57.0,50.0,-100.00,SW,231,5.0,11.0,76,0.00,,,0.00,15.000000,,2013-05-05 01:32:00,
2013-05-04 21:42:00,57.0,50.0,-100.00,SW,231,5.0,11.0,76,0.00,,,0.00,15.000000,,2013-05-05 01:42:00,
2013-05-04 22:12:00,56.0,51.0,-100.00,South,181,3.0,9.0,82,0.00,,,0.00,0.000000,,2013-05-05 02:12:00,
2013-05-04 22:22:00,56.0,51.0,-100.00,South,181,3.0,9.0,82,0.00,,,0.00,0.000000,,2013-05-05 02:22:00,
2013-05-04 22:32:00,56.0,51.0,-100.00,South,181,3.0,9.0,82,0.00,,,0.00,0.000000,,2013-05-05 02:32:00,
2013-05-04 22:42:00,56.0,51.0,-100.00,South,181,3.0,9.0,82,0.00,,,0.00,0.000000,,2013-05-05 02:42:00,
2013-05-04 23:12:00,53.0,51.0,-100.00,SSW,194,4.0,193.0,93,0.00,,,0.00,0.000000,,2013-05-05 03:12:00,
2013-05-04 23:22:00,53.0,51.0,-100.00,SSW,194,4.0,193.0,93,0.00,,,0.00,0.000000,,2013-05-05 03:22:00,
2013-05-04 23:33:00,53.0,51.0,-100.00,SSW,194,4.0,193.0,93,0.00,,,0.00,0.000000,,2013-05-05 03:33:00,
2013-05-04 23:42:00,53.0,51.0,-100.00,SSW,194,4.0,193.0,93,0.00,,,0.00,0.000000,,2013-05-05 03:42:00,